EW5206 Weather Reports


Display with metric or nautical units.
time (UTC)temp
F
wind
direction
speed
MPH
gust
MPH
rain 1hr
in
rain 24hr
in
rain mn
in
humidity
%
barometer
mb
20260903043046 74 0.0 0.0 0.00 0.00 0.00 80 1016.5
20260903041544 74 0.0 0.0 0.00 0.00 0.00 78 1016.6
20260903040038 75 0.0 0.0 0.00 0.00 0.00 77 1016.7
20260903034543 76 0.0 0.0 0.00 0.00 0.00 75 1016.8
20260903033037 77 0.0 0.0 0.00 0.00 0.00 73 1016.8
20260903031538 77 0.0 0.0 0.00 0.00 0.00 72 1016.7
20260903030036 78 0.0 0.0 0.00 0.00 0.00 71 1016.7
20260903024536 78 0.0 0.0 0.00 0.00 0.00 71 1016.7
20260903023035 78 0.0 0.0 0.00 0.00 0.00 70 1016.7
20260903021535 78 0.0 0.0 0.00 0.00 0.00 70 1016.8
20260903020049 78 0.0 0.0 0.00 0.00 0.00 69 1016.7
20260903014536 79 0.0 0.0 0.00 0.00 0.00 68 1016.8
20260903013034 79 0.0 0.0 0.00 0.00 0.00 70 1016.9
20260903011538 79 0.0 0.0 0.00 0.00 0.00 69 1016.9
20260903010032 80 0.0 0.0 0.00 0.00 0.00 68 1016.9
20260903004532 81 0.0 0.0 0.00 0.00 0.00 68 1016.8
20260903003031 81 0.0 0.0 0.00 0.00 0.00 65 1016.5
20260903001533 82 0.0 0.0 0.00 0.00 0.00 64 1016.4
20260903000031 83 0.0 0.0 0.00 0.00 0.00 63 1016.4
20260902234530 84 0.0 0.0 0.00 0.00 0.00 61 1016.3
20260902233029 85 0.0 0.0 0.00 0.00 0.00 60 1016.3
20260902231531 86 0.0 0.0 0.00 0.00 0.00 59 1016.3
20260902230029 86 0.0 0.0 0.00 0.00 0.00 58 1016.3
20260902224529 87 0.0 0.0 0.00 0.00 0.00 56 1016.3
20260902223030 88 0.0 0.0 0.00 0.00 0.00 54 1016.2
20260902221532 89 0.0 0.0 0.00 0.00 0.00 53 1016.2
20260902220030 89 0.0 0.0 0.00 0.00 0.00 52 1016.0
20260902214527 89 0.0 0.0 0.00 0.00 0.00 52 1016.1
20260902213030 90 0.0 0.0 0.00 0.00 0.00 52 1016.0
20260902211526 90 0.0 0.0 0.00 0.00 0.00 50 1016.0
20260902210025 90 0.0 0.0 0.00 0.00 0.00 50 1016.0
20260902204524 91 0.0 0.0 0.00 0.00 0.00 50 1016.2
20260902203021 91 0.0 0.0 0.00 0.00 0.00 49 1016.2
20260902201523 91 0.0 0.0 0.00 0.00 0.00 47 1016.2
20260902200019 92 0.0 0.0 0.00 0.00 0.00 48 1016.6
20260902194522 92 0.0 0.0 0.00 0.00 0.00 48 1016.5
20260902193014 92 0.0 0.0 0.00 0.00 0.00 47 1016.9
20260902191515 91 0.0 0.0 0.00 0.00 0.00 48 1017.0
20260902190011 92 0.0 0.0 0.00 0.00 0.00 47 1017.0
20260902184511 92 0.0 0.0 0.00 0.00 0.00 47 1017.1
20260902183009 92 0.0 0.0 0.00 0.00 0.00 46 1017.3
20260902181508 93 0.0 0.0 0.00 0.00 0.00 44 1017.4
20260902180008 94 0.0 0.0 0.00 0.00 0.00 43 1017.4
20260902174506 96 0.0 0.0 0.00 0.00 0.00 41 1017.5
20260902173007 96 0.0 0.0 0.00 0.00 0.00 44 1017.7
20260902171507 96 0.0 0.0 0.00 0.00 0.00 43 1017.8
20260902170006 97 0.0 0.0 0.00 0.00 0.00 43 1017.8
20260902164504 98 0.0 0.0 0.00 0.00 0.00 39 1018.0
20260902163002 97 0.0 0.0 0.00 0.00 0.00 43 1018.3
20260902161600 96 0.0 0.0 0.00 0.00 0.00 46 1018.4
20260902160116 96 0.0 0.0 0.00 0.00 0.00 48 1018.6
20260902154600 96 0.0 0.0 0.00 0.00 0.00 47 1018.7
20260902153057 95 0.0 0.0 0.00 0.00 0.00 49 1018.8
20260902151556 95 0.0 0.0 0.00 0.00 0.00 51 1018.9
20260902150047 93 0.0 0.0 0.00 0.00 0.00 53 1018.9
20260902144543 92 0.0 0.0 0.00 0.00 0.00 55 1018.8
20260902143043 91 0.0 0.0 0.00 0.00 0.00 59 1018.6
20260902141535 89 0.0 0.0 0.00 0.00 0.00 62 1018.6
20260902140036 87 0.0 0.0 0.00 0.00 0.00 64 1018.6
20260902134526 85 0.0 0.0 0.00 0.00 0.00 68 1018.5
20260902133023 82 0.0 0.0 0.00 0.00 0.00 72 1018.6
20260902131518 79 0.0 0.0 0.00 0.00 0.00 77 1018.6
20260902130013 76 0.0 0.0 0.00 0.00 0.00 82 1018.7
20260902124511 74 0.0 0.0 0.00 0.00 0.00 87 1018.7
20260902123021 71 0.0 0.0 0.00 0.00 0.00 93 1018.6
20260902121509 68 0.0 0.0 0.00 0.00 0.00 95 1018.6
20260902120008 68 0.0 0.0 0.00 0.00 0.00 95 1018.7
20260902114511 67 0.0 0.0 0.00 0.00 0.00 95 1018.6
20260902113006 67 0.0 0.0 0.00 0.00 0.00 95 1018.6
20260902111514 67 0.0 0.0 0.00 0.00 0.00 94 1018.5
20260902110008 67 0.0 0.0 0.00 0.00 0.00 93 1018.3
20260902104501 68 0.0 0.0 0.00 0.00 0.00 93 1018.3
20260902103100 68 0.0 0.0 0.00 0.00 0.00 93 1018.2
20260902101559 68 0.0 0.0 0.00 0.00 0.00 93 1018.1
20260902100059 68 0.0 0.0 0.00 0.00 0.00 93 1018.0
20260902094558 68 0.0 0.0 0.00 0.00 0.00 93 1018.1
20260902093159 68 0.0 0.0 0.00 0.00 0.00 93 1018.1
20260902091600 68 0.0 0.0 0.00 0.00 0.00 93 1018.1
20260902090055 68 0.0 0.0 0.00 0.00 0.00 92 1018.0
20260902084557 69 0.0 0.0 0.00 0.00 0.00 91 1018.0
20260902083102 69 0.0 0.0 0.00 0.00 0.00 91 1017.9
20260902081551 69 0.0 0.0 0.00 0.00 0.00 90 1017.8
20260902080106 70 0.0 0.0 0.00 0.00 0.00 89 1017.8
20260902074549 69 0.0 0.0 0.00 0.00 0.00 90 1017.8
20260902073047 70 0.0 0.0 0.00 0.00 0.00 88 1018.0
20260902071546 70 0.0 0.0 0.00 0.00 0.00 88 1018.1
20260902070044 70 0.0 0.0 0.00 0.00 0.00 88 1017.9
20260902064543 71 0.0 0.0 0.00 0.00 0.00 87 1017.9
20260902063042 71 0.0 0.0 0.00 0.00 0.00 86 1018.2
20260902061604 72 0.0 0.0 0.00 0.00 0.00 85 1018.1
20260902060037 73 0.0 0.0 0.00 0.00 0.00 84 1018.1
20260902054544 73 0.0 0.0 0.00 0.00 0.00 83 1017.9
20260902053031 73 0.0 0.0 0.00 0.00 0.00 83 1017.7
20260902051529 73 0.0 0.0 0.00 0.00 0.00 82 1017.5
20260902050029 73 0.0 0.0 0.00 0.00 0.00 82 1017.4
20260902044528 73 0.0 0.0 0.00 0.00 0.00 81 1017.5